User: anonymous   Login
Location: Earls Croome
(52.0667°N, 2.2000°W)
Time: 08:36:44
(UTC+00:00)
Language:

Cosmos 1484 Rocket - Orbit

View from above orbital plane
View from above orbital plane
View from above satellite
View from above satellite

Ground track
Ground track

The orbit data is extracted from the following two-line orbital elements,

1 14208U 83075B   20025.54776337 +.00000065 +00000-0 +75684-5 0  9995
2 14208 097.3830 014.0208 0040449 084.5856 275.9987 15.11042189990994
Epoch (UTC): 25 January 2020 13:08:46
Eccentricity: 0.0040449
inclination: 97.3830°
perigee height: 505 km
apogee height: 561 km
right ascension of ascending node: 14.0208°
argument of perigee: 84.5856°
revolutions per day: 15.11042189
mean anomaly at epoch: 275.9987°
orbit number at epoch: 99099

The dashed part of the orbit path shows where the satellite is in the earth's shadow,  

DLR